Regional Weather Roundup
Issued by NWS

Home | Current Version | Previous Version | Text Only | Print | Product List | Glossary Off
Versions: 1 2 3 4 5 6 7 8 9 10 11 12 13 14 15 16 17 18 19 20 21 22 23 24 25 26 27 28 29 30 31 32 33 34 35 36 37 38 39 40 41 42 43 44 45 46 47 48 49 50

000
ASUS45 KCYS 290710
RWRWY

WYOMING REGIONAL WEATHER ROUNDUP
NATIONAL WEATHER SERVICE CHEYENNE WY
100 AM MDT FRI MAY 29 2015

NOTE:  "FAIR" INDICATES FEW OR NO CLOUDS BELOW 12,000 FEET
WITH NO SIGNIFICANT WEATHER AND/OR OBSTRUCTIONS TO VISIBILITY.

WYZ001-290800-
YELLOWSTONE NATIONAL PARK

CITY           SKY/WX    TMP DP  RH WIND       PRES   REMARKS
LK YELLOWSTONE   N/A     37  35  92 CALM      30.32F
W YELLOWSTONE  NOT AVBL

$$
WYZ002>013-054>058-071-098>099-290800-
NORTHERN WYOMING

CITY           SKY/WX    TMP DP  RH WIND       PRES   REMARKS
JACKSON        MOCLDY    37  37 100 CALM      30.27R
CODY           CLOUDY    50  45  81 N5        30.23F
GREYBULL       LGT RAIN  53  50  89 NW16      30.16R
WORLAND        CLOUDY    53  47  79 N7        30.18S
SHERIDAN       LGT RAIN  51  49  92 NW13      30.19S
BUFFALO        CLOUDY    50  47  89 NW15G28   30.20R
GILLETTE       CLOUDY    52  50  93 N10       30.13S
HULETT         CLOUDY    54  50  87 N8        30.12S
NEWCASTLE      FAIR      52  50  93 NW13      30.10S

$$
WYZ014>020-022>026-101>103-290800-
CENTRAL WYOMING

CITY           SKY/WX    TMP DP  RH WIND       PRES   REMARKS
BIG PINEY      FAIR      39  36  89 NW8       30.25S WCI  33
PINEDALE       FAIR      37  36  93 CALM      30.26S
DUBOIS         CLOUDY    41  37  87 CALM      30.26S
LANDER         RAIN      47  42  83 SW7       30.22S
RIVERTON       CLOUDY    50  42  74 N10       30.23R
CASPER         CLOUDY    48  45  89 NW5       30.19R
DOUGLAS        MOCLDY    52  47  83 NW6       30.16S

$$
WYZ021-027>030-104>119-290800-
SOUTHERN WYOMING

CITY           SKY/WX    TMP DP  RH WIND       PRES   REMARKS
EVANSTON       FAIR      43  36  76 SE5       30.27F
KEMMERER       FAIR      41  36  81 N6        30.26F
FORT BRIDGER   SUNNY     43  39  87 W7        30.29S
ROCK SPRINGS   FAIR      42  37  82 SE7       30.24S
DIXON          LGT RAIN  46  42  86 N3        30.26F
RAWLINS        MOCLDY    45  40  82 N6        30.22S
SARATOGA       CLOUDY    45  37  76 S5        30.24S
LARAMIE        CLOUDY    46  38  73 CALM      30.20F
CHEYENNE       CLOUDY    50  40  68 N13G18    30.17F
TORRINGTON     CLOUDY    56  48  74 NW9       30.08F
PINE BLUFFS    PTSUNNY   50  46  87 NW6       30.13F

$$


USA.gov is the U.S. government's official web portal to all federal, state and local government web resources and services.